COSMOS 700

Satellite information

Favourite Embed

Satellite Type and Status

PAYLOADIN ORBIT

Key statistics

Satellite COSMOS 700 at a glance.

Uptime

18518

Days in orbit

Revolutions

≈ 13.8

Per day

Orbit

LEO

Low Earth Orbit

Inclination

82.9

Latest

Satellite identification and parameters

Extended collection of information and parameters for COSMOS 700.

Object identification

Identified? True

Debris? False

Object name: COSMOS 700

International designator: 1974-105A

Object number (NORAD): 7593

Object ID (CCSDS): 7593

Country: COMMONWEALTH OF INDEPENDENT STATES (CIS)

Current information (Y/N): Y

RCS size: LARGE

Orbital parameters

Period: 104.579 minutes

Inclination: 82.9467 deg

SMA: 7352.849 km

Apoapsis: 993.025 km

Periapsis: 956.404 km

RAAN: 258.3482 deg

Eccentricy: 0.00249025

Argument of periapsis: 18.3774 deg

Mean anomaly: 155.0234 deg

Mean motion: 13.76953453 rev/day

Mean motion (dot): 0.00000072 rev/day2

B* drag term: 0.000057061883 1/REarth

Two-line elements (TLE)

Creation date: Sept. 7, 2025, 3:09 a.m.

Reference frame: TEME

Reference center: EARTH

Epoch: Sept. 6, 2025, 7:14 p.m. UTC

TLE line 0: 0 COSMOS 700

TLE line 1: 1 07593U 74105A 25249.80186523 .00000072 00000-0 57062-4 0 9999

TLE line 2: 2 07593 82.9467 258.3482 0024903 18.3774 155.0234 13.76953453546283

Live tracking on map

Real-time ground track for satellite COSMOS 700.

In-orbit conjunctions

A list of the most updated potential collisions computed for object COSMOS 700.

Target Orbit TCA Probability of collision Miss distance Type
FENGYUN 1C DEB SSO 2024-09-12 00:16:01 0.0004135564 426.0 (m) DEBRIS
DELTA 1 DEB SSO 2024-09-08 11:42:13 0.0001411012 863.0 (m) DEBRIS

Associated space launch

Navigation satellite providing location information for the Tsiklon-B navigation system

COSMOS 700 was lifted into orbit during the mission ‘Kosmos-3M | Parus 1’, on board a Kosmos-3M space rocket.

The launch took place on Dec. 26, 1974, 11:59 a.m. from 132/1 (132L).

For more information about the launch, click the button.

Launch to space Kosmos-3M | Parus 1
Kosmos-3M | Parus 1

Agency: N/A

Status: Launch Successful

Launch date: Dec. 26, 1974, 11:59 a.m. UTC

Rocket: Kosmos-3M

Launch pad: 132/1 (132L)

Location: Plesetsk Cosmodrome, Russian Federation

...

Latest news about this satellite

There are no fresh news available about this satellite. Check back as we update our databases every day.


Newsletter sign-up

Weekly statistics, charts and insights to help you stay on top of the space industry.